Hourly Data Report for June 05, 2021

WRIGLEY A
NORTHWEST TERRITORIES
Current Station Operator: NAVCAN

63°12'35.000" N
123°26'12.000" W
149.70 m
2204005
YWY

Download Data

Hourly Data (June 2021)
Hourly Data Report for June 5, 2021
TIME
LST
Temp Definition
°C
Dew Point Definition
°C
Rel Hum Definition
%
Precip. Amount Definition
mm

Wind Dir Definition
10's deg

Wind Spd Definition
km/h
Visibility Definition
km
Stn Press Definition
kPa
Hmdx Definition


Wind Chill Definition


Weather Definition


00:00 13.1 6.8 65 LegendMM 30 7 LegendMM 97.95     LegendNANA
01:00 12.1 7.6 74 LegendMM 30 13 LegendMM 98.01     LegendNANA
02:00 11.9 6.2 68 LegendMM 31 8 LegendMM 98.08     LegendNANA
03:00 11.3 5.8 69 LegendMM 34 5 LegendMM 98.14     LegendNANA
04:00 10.8 6.2 73 LegendMM 36 7 LegendMM 98.20     LegendNANA
05:00 9.3 7.0 85 LegendMM 32 10 LegendMM 98.27     LegendNANA
06:00 8.5 7.0 91 LegendMM 35 9 LegendMM 98.30     LegendNANA
07:00 8.5 6.5 87 LegendMM 33 11 LegendMM 98.34     LegendNANA
08:00 8.5 6.5 88 LegendMM 33 9 LegendMM 98.36     LegendNANA
09:00 9.0 6.6 85 LegendMM 31 8 LegendMM 98.38     LegendNANA
10:00 11.4 7.1 75 LegendMM 31 10 LegendMM 98.39     LegendNANA
11:00 12.3 5.8 65 LegendMM 36 7 LegendMM 98.41     LegendNANA
12:00 14.7 5.4 53 LegendMM 32 15 LegendMM 98.38     LegendNANA
13:00 16.2 5.8 50 LegendMM 30 19 LegendMM 98.38     LegendNANA
14:00 16.6 4.2 44 LegendMM 32 17 LegendMM 98.38     LegendNANA
15:00 17.4 1.4 34 LegendMM 35 11 LegendMM 98.39     LegendNANA
16:00 17.3 2.5 37 LegendMM 33 14 LegendMM 98.40     LegendNANA
17:00 17.1 2.3 37 LegendMM 31 22 LegendMM 98.42     LegendNANA
18:00 17.0 2.6 38 LegendMM 32 12 LegendMM 98.47     LegendNANA
19:00 14.7 4.9 51 LegendMM 2 15 LegendMM 98.53     LegendNANA
20:00 14.0 5.1 55 LegendMM 1 12 LegendMM 98.60     LegendNANA
21:00 13.1 5.2 59 LegendMM 33 10 LegendMM 98.67     LegendNANA
22:00 12.1 4.4 59 LegendMM 34 7 LegendMM 98.78     LegendNANA
23:00 10.6 3.5 61 LegendMM 31 13 LegendMM 98.88     LegendNANA

Notes on Data Quality.

Legend

  • E = Estimated
  • M = Missing
  • NA = Not Available*
  • [empty] = Indicates an unobserved value
Date modified: